owner,sensor,date,latitude,longitude,air_pressure(mBar),qcFlag 
TABS,ioos:station:wmo:42043:1,2007-01-01T00:00:00Z,28.9818,-94.9186,1020.36,11111222 
TABS,ioos:station:wmo:42043:1,2007-01-01T00:30:00Z,28.9818,-94.9186,1020.61,11111222 
TABS,ioos:station:wmo:42043:1,2007-01-01T01:00:00Z,28.9818,-94.9186,1021.2,11111222 
TABS,ioos:station:wmo:42043:1,2007-01-01T01:30:00Z,28.9818,-94.9186,1021.55,11111222 
TABS,ioos:station:wmo:42043:1,2007-01-01T02:00:00Z,28.9818,-94.9186,1021.93,11111222 
TABS,ioos:station:wmo:42043:1,2007-01-01T02:30:00Z,28.9818,-94.9186,1022.3,11111222 
TABS,ioos:station:wmo:42043:1,2007-01-01T03:00:00Z,28.9818,-94.9186,1022.69,11111222 
TABS,ioos:station:wmo:42043:1,2007-01-01T03:30:00Z,28.9818,-94.9186,1022.93,11111222 
TABS,ioos:station:wmo:42043:1,2007-01-01T04:00:00Z,28.9818,-94.9186,1023.17,11111222 
TABS,ioos:station:wmo:42043:1,2007-01-01T04:30:00Z,28.9818,-94.9186,1023.53,11111222 
TABS,ioos:station:wmo:42043:1,2007-01-01T05:00:00Z,28.9818,-94.9186,1023.4,11111222 
TABS,ioos:station:wmo:42043:1,2007-01-01T05:30:00Z,28.9818,-94.9186,1023.46,11111222 
TABS,ioos:station:wmo:42043:1,2007-01-01T06:00:00Z,28.9818,-94.9186,1023.54,11111222 
TABS,ioos:station:wmo:42043:1,2007-01-01T06:30:00Z,28.9818,-94.9186,1023.32,11111222 
TABS,ioos:station:wmo:42043:1,2007-01-01T07:00:00Z,28.9818,-94.9186,1023.52,11111222 
TABS,ioos:station:wmo:42043:1,2007-01-01T07:30:00Z,28.9818,-94.9186,1023.47,11111222 
TABS,ioos:station:wmo:42043:1,2007-01-01T08:00:00Z,28.9818,-94.9186,1023.59,11111222 
TABS,ioos:station:wmo:42043:1,2007-01-01T08:30:00Z,28.9818,-94.9186,1023.71,11111222 
TABS,ioos:station:wmo:42043:1,2007-01-01T09:00:00Z,28.9818,-94.9186,1024.18,11111222 
TABS,ioos:station:wmo:42043:1,2007-01-01T09:30:00Z,28.9818,-94.9186,1024.02,11111222 
TABS,ioos:station:wmo:42043:1,2007-01-01T10:00:00Z,28.9818,-94.9186,1023.97,11111222 
TABS,ioos:station:wmo:42043:1,2007-01-01T10:30:00Z,28.9818,-94.9186,1023.72,11111222 
TABS,ioos:station:wmo:42043:1,2007-01-01T11:00:00Z,28.9818,-94.9186,1023.88,11111222 
TABS,ioos:station:wmo:42043:1,2007-01-01T11:30:00Z,28.9818,-94.9186,1024.09,11111222 
TABS,ioos:station:wmo:42043:1,2007-01-01T12:00:00Z,28.9818,-94.9186,1024.29,11111222 
TABS,ioos:station:wmo:42043:1,2007-01-01T12:30:00Z,28.9818,-94.9186,1024.59,11111222 
TABS,ioos:station:wmo:42043:1,2007-01-01T13:00:00Z,28.9818,-94.9186,1025.18,11111222 
TABS,ioos:station:wmo:42043:1,2007-01-01T13:30:00Z,28.9818,-94.9186,1025.67,11111222 
TABS,ioos:station:wmo:42043:1,2007-01-01T14:00:00Z,28.9818,-94.9186,1025.93,11111222 
TABS,ioos:station:wmo:42043:1,2007-01-01T14:30:00Z,28.9818,-94.9186,1026.24,11111222 
TABS,ioos:station:wmo:42043:1,2007-01-01T15:00:00Z,28.9818,-94.9186,1026.52,11111222 
TABS,ioos:station:wmo:42043:1,2007-01-01T15:30:00Z,28.9818,-94.9186,1026.8,11111222 
TABS,ioos:station:wmo:42043:1,2007-01-01T16:00:00Z,28.9818,-94.9186,1026.81,11111222 
TABS,ioos:station:wmo:42043:1,2007-01-01T16:30:00Z,28.9818,-94.9186,1026.82,11111222 
TABS,ioos:station:wmo:42043:1,2007-01-01T17:00:00Z,28.9818,-94.9186,1026.74,11111222 
TABS,ioos:station:wmo:42043:1,2007-01-01T17:30:00Z,28.9818,-94.9186,1026.14,11111222 
TABS,ioos:station:wmo:42043:1,2007-01-01T18:00:00Z,28.9818,-94.9186,1025.56,11111222 
TABS,ioos:station:wmo:42043:1,2007-01-01T18:30:00Z,28.9818,-94.9186,1025.02,11111222 
TABS,ioos:station:wmo:42043:1,2007-01-01T19:00:00Z,28.9818,-94.9186,1024.51,11111222 
TABS,ioos:station:wmo:42043:1,2007-01-01T19:30:00Z,28.9818,-94.9186,1024.27,11111222 
TABS,ioos:station:wmo:42043:1,2007-01-01T20:00:00Z,28.9818,-94.9186,1024.11,11111222 
TABS,ioos:station:wmo:42043:1,2007-01-01T20:30:00Z,28.9818,-94.9186,1023.74,11111222 
TABS,ioos:station:wmo:42043:1,2007-01-01T21:00:00Z,28.9818,-94.9186,1023.64,11111222 
TABS,ioos:station:wmo:42043:1,2007-01-01T21:30:00Z,28.9818,-94.9186,1023.8,11111222 
TABS,ioos:station:wmo:42043:1,2007-01-01T22:00:00Z,28.9818,-94.9186,1023.77,11111222 
TABS,ioos:station:wmo:42043:1,2007-01-01T22:30:00Z,28.9818,-94.9186,1023.86,11111222 
TABS,ioos:station:wmo:42043:1,2007-01-01T23:00:00Z,28.9818,-94.9186,1023.95,11111222 
TABS,ioos:station:wmo:42043:1,2007-01-01T23:30:00Z,28.9818,-94.9186,1024.14,11111222 
TABS,ioos:station:wmo:42043:1,2007-01-02T00:00:00Z,28.9818,-94.9186,1024.44,11111222 
TABS,ioos:station:wmo:42043:1,2007-01-02T00:30:00Z,28.9818,-94.9186,1024.26,11111222 
TABS,ioos:station:wmo:42043:1,2007-01-02T01:00:00Z,28.9818,-94.9186,1024.34,11111222 
TABS,ioos:station:wmo:42043:1,2007-01-02T01:30:00Z,28.9818,-94.9186,1024.84,11111222 
TABS,ioos:station:wmo:42043:1,2007-01-02T02:00:00Z,28.9818,-94.9186,1025.17,11111222 
TABS,ioos:station:wmo:42043:1,2007-01-02T02:30:00Z,28.9818,-94.9186,1025.2,11111222 
TABS,ioos:station:wmo:42043:1,2007-01-02T03:00:00Z,28.9818,-94.9186,1025.15,11111222 
TABS,ioos:station:wmo:42043:1,2007-01-02T03:30:00Z,28.9818,-94.9186,1025.1,11111222 
TABS,ioos:station:wmo:42043:1,2007-01-02T04:00:00Z,28.9818,-94.9186,1025.36,11111222 
TABS,ioos:station:wmo:42043:1,2007-01-02T04:30:00Z,28.9818,-94.9186,1025.7,11111222 
TABS,ioos:station:wmo:42043:1,2007-01-02T05:00:00Z,28.9818,-94.9186,1025.42,11111222 
TABS,ioos:station:wmo:42043:1,2007-01-02T05:30:00Z,28.9818,-94.9186,1025.34,11111222 
TABS,ioos:station:wmo:42043:1,2007-01-02T06:00:00Z,28.9818,-94.9186,1025.12,11111222 
TABS,ioos:station:wmo:42043:1,2007-01-02T06:30:00Z,28.9818,-94.9186,1025.13,11111222 
TABS,ioos:station:wmo:42043:1,2007-01-02T07:00:00Z,28.9818,-94.9186,1025.34,11111222 
TABS,ioos:station:wmo:42043:1,2007-01-02T07:30:00Z,28.9818,-94.9186,1025.17,11111222 
TABS,ioos:station:wmo:42043:1,2007-01-02T08:00:00Z,28.9818,-94.9186,1025.39,11111222 
TABS,ioos:station:wmo:42043:1,2007-01-02T08:30:00Z,28.9818,-94.9186,1025.49,11111222 
TABS,ioos:station:wmo:42043:1,2007-01-02T09:00:00Z,28.9818,-94.9186,1025.54,11111222 
TABS,ioos:station:wmo:42043:1,2007-01-02T09:30:00Z,28.9818,-94.9186,1025.46,11111222 
TABS,ioos:station:wmo:42043:1,2007-01-02T10:00:00Z,28.9818,-94.9186,1025.34,11111222 
TABS,ioos:station:wmo:42043:1,2007-01-02T10:30:00Z,28.9818,-94.9186,1024.97,11111222 
TABS,ioos:station:wmo:42043:1,2007-01-02T11:00:00Z,28.9818,-94.9186,1024.99,11111222 
TABS,ioos:station:wmo:42043:1,2007-01-02T11:30:00Z,28.9818,-94.9186,1025.48,11111222 
TABS,ioos:station:wmo:42043:1,2007-01-02T12:00:00Z,28.9818,-94.9186,1025.7,11111222 
TABS,ioos:station:wmo:42043:1,2007-01-02T12:30:00Z,28.9818,-94.9186,1026.01,11111222 
TABS,ioos:station:wmo:42043:1,2007-01-02T13:00:00Z,28.9818,-94.9186,1026.36,11111222 
TABS,ioos:station:wmo:42043:1,2007-01-02T13:30:00Z,28.9818,-94.9186,1026.57,11111222 
TABS,ioos:station:wmo:42043:1,2007-01-02T14:00:00Z,28.9818,-94.9186,1026.8,11111222 
TABS,ioos:station:wmo:42043:1,2007-01-02T14:30:00Z,28.9818,-94.9186,1026.95,11111222 
TABS,ioos:station:wmo:42043:1,2007-01-02T15:00:00Z,28.9818,-94.9186,1027.52,11111222 
TABS,ioos:station:wmo:42043:1,2007-01-02T15:30:00Z,28.9818,-94.9186,1028.04,11111222 
TABS,ioos:station:wmo:42043:1,2007-01-02T16:00:00Z,28.9818,-94.9186,1028.29,11111222 
TABS,ioos:station:wmo:42043:1,2007-01-02T16:30:00Z,28.9818,-94.9186,1028.08,11111222 
TABS,ioos:station:wmo:42043:1,2007-01-02T17:00:00Z,28.9818,-94.9186,1027.71,11111222 
TABS,ioos:station:wmo:42043:1,2007-01-02T17:30:00Z,28.9818,-94.9186,1026.98,11111222 
TABS,ioos:station:wmo:42043:1,2007-01-02T18:00:00Z,28.9818,-94.9186,1026.75,11111222 
TABS,ioos:station:wmo:42043:1,2007-01-02T18:30:00Z,28.9818,-94.9186,1026.14,11111222 
TABS,ioos:station:wmo:42043:1,2007-01-02T19:00:00Z,28.9818,-94.9186,1025.5,11111222 
TABS,ioos:station:wmo:42043:1,2007-01-02T19:30:00Z,28.9818,-94.9186,1025.07,11111222 
TABS,ioos:station:wmo:42043:1,2007-01-02T20:00:00Z,28.9818,-94.9186,1024.78,11111222 
TABS,ioos:station:wmo:42043:1,2007-01-02T20:30:00Z,28.9818,-94.9186,1024.74,11111222 
TABS,ioos:station:wmo:42043:1,2007-01-02T21:00:00Z,28.9818,-94.9186,1024.61,11111222 
TABS,ioos:station:wmo:42043:1,2007-01-02T21:30:00Z,28.9818,-94.9186,1024.5,11111222 
TABS,ioos:station:wmo:42043:1,2007-01-02T22:00:00Z,28.9818,-94.9186,1025.12,11111222 
TABS,ioos:station:wmo:42043:1,2007-01-02T22:30:00Z,28.9818,-94.9186,1025.07,11111222 
TABS,ioos:station:wmo:42043:1,2007-01-02T23:00:00Z,28.9818,-94.9186,1025.21,11111222 
TABS,ioos:station:wmo:42043:1,2007-01-02T23:30:00Z,28.9818,-94.9186,1025.25,11111222 
TABS,ioos:station:wmo:42043:1,2007-01-03T00:00:00Z,28.9818,-94.9186,1025.29,11111222 
TABS,ioos:station:wmo:42043:1,2007-01-03T00:30:00Z,28.9818,-94.9186,1025.27,11111222 
TABS,ioos:station:wmo:42043:1,2007-01-03T01:00:00Z,28.9818,-94.9186,1025.51,11111222 
TABS,ioos:station:wmo:42043:1,2007-01-03T01:30:00Z,28.9818,-94.9186,1025.48,11111222 
TABS,ioos:station:wmo:42043:1,2007-01-03T02:00:00Z,28.9818,-94.9186,1025.47,11111222 
TABS,ioos:station:wmo:42043:1,2007-01-03T02:30:00Z,28.9818,-94.9186,1025.61,11111222 
TABS,ioos:station:wmo:42043:1,2007-01-03T03:00:00Z,28.9818,-94.9186,1025.89,11111222 
TABS,ioos:station:wmo:42043:1,2007-01-03T03:30:00Z,28.9818,-94.9186,1026.05,11111222 
TABS,ioos:station:wmo:42043:1,2007-01-03T04:00:00Z,28.9818,-94.9186,1025.92,11111222 
TABS,ioos:station:wmo:42043:1,2007-01-03T04:30:00Z,28.9818,-94.9186,1025.77,11111222 
TABS,ioos:station:wmo:42043:1,2007-01-03T05:00:00Z,28.9818,-94.9186,1025.74,11111222 
TABS,ioos:station:wmo:42043:1,2007-01-03T05:30:00Z,28.9818,-94.9186,1025.43,11111222 
TABS,ioos:station:wmo:42043:1,2007-01-03T06:00:00Z,28.9818,-94.9186,1024.75,11111222 
TABS,ioos:station:wmo:42043:1,2007-01-03T06:30:00Z,28.9818,-94.9186,1025.16,11111222 
TABS,ioos:station:wmo:42043:1,2007-01-03T07:00:00Z,28.9818,-94.9186,1025.06,11111222 
TABS,ioos:station:wmo:42043:1,2007-01-03T07:30:00Z,28.9818,-94.9186,1025.07,11111222 
TABS,ioos:station:wmo:42043:1,2007-01-03T08:00:00Z,28.9818,-94.9186,1025.19,11111222 
TABS,ioos:station:wmo:42043:1,2007-01-03T08:30:00Z,28.9818,-94.9186,1024.88,11111222 
TABS,ioos:station:wmo:42043:1,2007-01-03T09:00:00Z,28.9818,-94.9186,1024.79,11111222 
TABS,ioos:station:wmo:42043:1,2007-01-03T09:30:00Z,28.9818,-94.9186,1024.6,11111222 
TABS,ioos:station:wmo:42043:1,2007-01-03T10:00:00Z,28.9818,-94.9186,1024.01,11111222 
TABS,ioos:station:wmo:42043:1,2007-01-03T10:30:00Z,28.9818,-94.9186,1023.85,11111222 
TABS,ioos:station:wmo:42043:1,2007-01-03T11:00:00Z,28.9818,-94.9186,1023.78,11111222 
TABS,ioos:station:wmo:42043:1,2007-01-03T11:30:00Z,28.9818,-94.9186,1024.36,11111222 
TABS,ioos:station:wmo:42043:1,2007-01-03T12:00:00Z,28.9818,-94.9186,1024.69,11111222 
TABS,ioos:station:wmo:42043:1,2007-01-03T12:30:00Z,28.9818,-94.9186,1025.12,11111222 
TABS,ioos:station:wmo:42043:1,2007-01-03T13:00:00Z,28.9818,-94.9186,1025.09,11111222 
TABS,ioos:station:wmo:42043:1,2007-01-03T13:30:00Z,28.9818,-94.9186,1025.08,11111222 
TABS,ioos:station:wmo:42043:1,2007-01-03T14:00:00Z,28.9818,-94.9186,1025.2,11111222 
TABS,ioos:station:wmo:42043:1,2007-01-03T14:30:00Z,28.9818,-94.9186,1025.16,11111222 
TABS,ioos:station:wmo:42043:1,2007-01-03T15:00:00Z,28.9818,-94.9186,1025.54,11111222 
TABS,ioos:station:wmo:42043:1,2007-01-03T15:30:00Z,28.9818,-94.9186,1025.79,11111222 
TABS,ioos:station:wmo:42043:1,2007-01-03T16:00:00Z,28.9818,-94.9186,1025.88,11111222 
TABS,ioos:station:wmo:42043:1,2007-01-03T16:30:00Z,28.9818,-94.9186,1026.27,11111222 
TABS,ioos:station:wmo:42043:1,2007-01-03T17:00:00Z,28.9818,-94.9186,1025.64,11111222 
TABS,ioos:station:wmo:42043:1,2007-01-03T17:30:00Z,28.9818,-94.9186,1024.8,11111222 
TABS,ioos:station:wmo:42043:1,2007-01-03T18:00:00Z,28.9818,-94.9186,1023.99,11111222 
TABS,ioos:station:wmo:42043:1,2007-01-03T18:30:00Z,28.9818,-94.9186,1023.09,11111222 
TABS,ioos:station:wmo:42043:1,2007-01-03T19:00:00Z,28.9818,-94.9186,1022.47,11111222 
TABS,ioos:station:wmo:42043:1,2007-01-03T19:30:00Z,28.9818,-94.9186,1022.09,11111222 
TABS,ioos:station:wmo:42043:1,2007-01-03T20:00:00Z,28.9818,-94.9186,1021.76,11111222 
TABS,ioos:station:wmo:42043:1,2007-01-03T20:30:00Z,28.9818,-94.9186,1021.02,11111222 
TABS,ioos:station:wmo:42043:1,2007-01-03T21:00:00Z,28.9818,-94.9186,1021.01,11111222 
TABS,ioos:station:wmo:42043:1,2007-01-03T21:30:00Z,28.9818,-94.9186,1020.48,11111222 
TABS,ioos:station:wmo:42043:1,2007-01-03T22:00:00Z,28.9818,-94.9186,1020.84,11111222 
TABS,ioos:station:wmo:42043:1,2007-01-03T22:30:00Z,28.9818,-94.9186,1020.57,11111222 
TABS,ioos:station:wmo:42043:1,2007-01-03T23:00:00Z,28.9818,-94.9186,1019.64,11111222 
TABS,ioos:station:wmo:42043:1,2007-01-03T23:30:00Z,28.9818,-94.9186,1019.42,11111222 
TABS,ioos:station:wmo:42043:1,2007-01-04T00:00:00Z,28.9818,-94.9186,1019.48,11111222 
TABS,ioos:station:wmo:42043:1,2007-01-04T00:30:00Z,28.9818,-94.9186,1019.04,11111222 
TABS,ioos:station:wmo:42043:1,2007-01-04T01:00:00Z,28.9818,-94.9186,1018.94,11111222 
TABS,ioos:station:wmo:42043:1,2007-01-04T01:30:00Z,28.9818,-94.9186,1018.68,11111222 
TABS,ioos:station:wmo:42043:1,2007-01-04T02:00:00Z,28.9818,-94.9186,1018.59,11111222 
TABS,ioos:station:wmo:42043:1,2007-01-04T02:30:00Z,28.9818,-94.9186,1017.83,11111222 
TABS,ioos:station:wmo:42043:1,2007-01-04T03:00:00Z,28.9818,-94.9186,1017.22,11111222 
TABS,ioos:station:wmo:42043:1,2007-01-04T03:30:00Z,28.9818,-94.9186,1017.13,11111222 
TABS,ioos:station:wmo:42043:1,2007-01-04T04:00:00Z,28.9818,-94.9186,1016.97,11111222 
TABS,ioos:station:wmo:42043:1,2007-01-04T04:30:00Z,28.9818,-94.9186,1016.29,11111222 
TABS,ioos:station:wmo:42043:1,2007-01-04T05:00:00Z,28.9818,-94.9186,1015.74,11111222 
TABS,ioos:station:wmo:42043:1,2007-01-04T05:30:00Z,28.9818,-94.9186,1014.83,11111222 
TABS,ioos:station:wmo:42043:1,2007-01-04T06:00:00Z,28.9818,-94.9186,1014.32,11111222 
TABS,ioos:station:wmo:42043:1,2007-01-04T06:30:00Z,28.9818,-94.9186,1013.72,11111222 
TABS,ioos:station:wmo:42043:1,2007-01-04T07:00:00Z,28.9818,-94.9186,1013.23,11111222 
TABS,ioos:station:wmo:42043:1,2007-01-04T07:30:00Z,28.9818,-94.9186,1012.99,11111222 
TABS,ioos:station:wmo:42043:1,2007-01-04T08:00:00Z,28.9818,-94.9186,1012.58,11111222 
TABS,ioos:station:wmo:42043:1,2007-01-04T08:30:00Z,28.9818,-94.9186,1012.55,11111222 
TABS,ioos:station:wmo:42043:1,2007-01-04T09:00:00Z,28.9818,-94.9186,1012.23,11111222 
TABS,ioos:station:wmo:42043:1,2007-01-04T09:30:00Z,28.9818,-94.9186,1010.42,11111222 
TABS,ioos:station:wmo:42043:1,2007-01-04T10:00:00Z,28.9818,-94.9186,1009.99,11111222 
TABS,ioos:station:wmo:42043:1,2007-01-04T10:30:00Z,28.9818,-94.9186,1011.26,11111222 
TABS,ioos:station:wmo:42043:1,2007-01-04T11:00:00Z,28.9818,-94.9186,1010.89,11111222 
TABS,ioos:station:wmo:42043:1,2007-01-04T11:30:00Z,28.9818,-94.9186,1010.89,11111222 
TABS,ioos:station:wmo:42043:1,2007-01-04T12:00:00Z,28.9818,-94.9186,1012.34,11111222 
TABS,ioos:station:wmo:42043:1,2007-01-04T12:30:00Z,28.9818,-94.9186,1012.96,11111222 
TABS,ioos:station:wmo:42043:1,2007-01-04T13:00:00Z,28.9818,-94.9186,1012.66,11111222 
TABS,ioos:station:wmo:42043:1,2007-01-04T13:30:00Z,28.9818,-94.9186,1012.21,11111222 
TABS,ioos:station:wmo:42043:1,2007-01-04T14:00:00Z,28.9818,-94.9186,1013.07,11111222 
TABS,ioos:station:wmo:42043:1,2007-01-04T14:30:00Z,28.9818,-94.9186,1012.91,11111222 
TABS,ioos:station:wmo:42043:1,2007-01-04T15:00:00Z,28.9818,-94.9186,1012.85,11111222 
TABS,ioos:station:wmo:42043:1,2007-01-04T15:30:00Z,28.9818,-94.9186,1013.11,11111222 
TABS,ioos:station:wmo:42043:1,2007-01-04T16:00:00Z,28.9818,-94.9186,1013.82,11111222 
TABS,ioos:station:wmo:42043:1,2007-01-04T16:30:00Z,28.9818,-94.9186,1013.37,11111222 
TABS,ioos:station:wmo:42043:1,2007-01-04T17:00:00Z,28.9818,-94.9186,1012.85,11111222 
TABS,ioos:station:wmo:42043:1,2007-01-04T17:30:00Z,28.9818,-94.9186,1013.36,11111222 
TABS,ioos:station:wmo:42043:1,2007-01-04T18:00:00Z,28.9818,-94.9186,1012.52,11111222 
TABS,ioos:station:wmo:42043:1,2007-01-04T18:30:00Z,28.9818,-94.9186,1012.39,11111222 
TABS,ioos:station:wmo:42043:1,2007-01-04T19:00:00Z,28.9818,-94.9186,1010.15,11111222 
TABS,ioos:station:wmo:42043:1,2007-01-04T19:30:00Z,28.9818,-94.9186,1011.06,11111222 
TABS,ioos:station:wmo:42043:1,2007-01-04T20:00:00Z,28.9818,-94.9186,1010.69,11111222 
TABS,ioos:station:wmo:42043:1,2007-01-04T20:30:00Z,28.9818,-94.9186,1009.9,11111222 
TABS,ioos:station:wmo:42043:1,2007-01-04T21:00:00Z,28.9818,-94.9186,1010.34,11111222 
TABS,ioos:station:wmo:42043:1,2007-01-04T21:30:00Z,28.9818,-94.9186,1009.49,11111222 
TABS,ioos:station:wmo:42043:1,2007-01-04T22:00:00Z,28.9818,-94.9186,1010.66,11111222 
TABS,ioos:station:wmo:42043:1,2007-01-04T22:30:00Z,28.9818,-94.9186,1010.2,11111222 
TABS,ioos:station:wmo:42043:1,2007-01-04T23:00:00Z,28.9818,-94.9186,1010.77,11111222 
TABS,ioos:station:wmo:42043:1,2007-01-04T23:30:00Z,28.9818,-94.9186,1010.28,11111222 
TABS,ioos:station:wmo:42043:1,2007-01-05T00:00:00Z,28.9818,-94.9186,1010.37,11111222 
TABS,ioos:station:wmo:42043:1,2007-01-05T00:30:00Z,28.9818,-94.9186,1010.34,11111222 
TABS,ioos:station:wmo:42043:1,2007-01-05T01:00:00Z,28.9818,-94.9186,1010.18,11111222 
TABS,ioos:station:wmo:42043:1,2007-01-05T01:30:00Z,28.9818,-94.9186,1010.41,11111222 
TABS,ioos:station:wmo:42043:1,2007-01-05T02:00:00Z,28.9818,-94.9186,1010.16,11111222 
TABS,ioos:station:wmo:42043:1,2007-01-05T02:30:00Z,28.9818,-94.9186,1010.31,11111222 
TABS,ioos:station:wmo:42043:1,2007-01-05T03:00:00Z,28.9818,-94.9186,1010.64,11111222 
TABS,ioos:station:wmo:42043:1,2007-01-05T03:30:00Z,28.9818,-94.9186,1010.68,11111222 
TABS,ioos:station:wmo:42043:1,2007-01-05T04:00:00Z,28.9818,-94.9186,1010.92,11111222 
TABS,ioos:station:wmo:42043:1,2007-01-05T04:30:00Z,28.9818,-94.9186,1010.46,11111222 
TABS,ioos:station:wmo:42043:1,2007-01-05T05:00:00Z,28.9818,-94.9186,1010.29,11111222 
TABS,ioos:station:wmo:42043:1,2007-01-05T05:30:00Z,28.9818,-94.9186,1009.81,11111222 
TABS,ioos:station:wmo:42043:1,2007-01-05T06:00:00Z,28.9818,-94.9186,1009.36,11111222 
TABS,ioos:station:wmo:42043:1,2007-01-05T06:30:00Z,28.9818,-94.9186,1009.07,11111222 
TABS,ioos:station:wmo:42043:1,2007-01-05T07:00:00Z,28.9818,-94.9186,1008.77,11111222 
TABS,ioos:station:wmo:42043:1,2007-01-05T07:30:00Z,28.9818,-94.9186,1008.83,11111222 
TABS,ioos:station:wmo:42043:1,2007-01-05T08:00:00Z,28.9818,-94.9186,1008.8,11111222 
TABS,ioos:station:wmo:42043:1,2007-01-05T08:30:00Z,28.9818,-94.9186,1008.42,11111222 
TABS,ioos:station:wmo:42043:1,2007-01-05T09:00:00Z,28.9818,-94.9186,1008.42,11111222 
TABS,ioos:station:wmo:42043:1,2007-01-05T09:30:00Z,28.9818,-94.9186,1008.51,11111222 
TABS,ioos:station:wmo:42043:1,2007-01-05T10:00:00Z,28.9818,-94.9186,1008.43,11111222 
TABS,ioos:station:wmo:42043:1,2007-01-05T10:30:00Z,28.9818,-94.9186,1008.32,11111222 
TABS,ioos:station:wmo:42043:1,2007-01-05T11:00:00Z,28.9818,-94.9186,1008.13,11111222 
TABS,ioos:station:wmo:42043:1,2007-01-05T11:30:00Z,28.9818,-94.9186,1008.28,11111222 
TABS,ioos:station:wmo:42043:1,2007-01-05T12:00:00Z,28.9818,-94.9186,1008.43,11111222 
TABS,ioos:station:wmo:42043:1,2007-01-05T12:30:00Z,28.9818,-94.9186,1008.69,11111222 
TABS,ioos:station:wmo:42043:1,2007-01-05T13:00:00Z,28.9818,-94.9186,1008.88,11111222 
TABS,ioos:station:wmo:42043:1,2007-01-05T13:30:00Z,28.9818,-94.9186,1009.26,11111222 
TABS,ioos:station:wmo:42043:1,2007-01-05T14:00:00Z,28.9818,-94.9186,1009.69,11111222 
TABS,ioos:station:wmo:42043:1,2007-01-05T14:30:00Z,28.9818,-94.9186,1010.25,11111222 
TABS,ioos:station:wmo:42043:1,2007-01-05T15:00:00Z,28.9818,-94.9186,1010.88,11111222 
TABS,ioos:station:wmo:42043:1,2007-01-05T15:30:00Z,28.9818,-94.9186,1011.28,11111222 
TABS,ioos:station:wmo:42043:1,2007-01-05T16:00:00Z,28.9818,-94.9186,1011.38,11111222 
TABS,ioos:station:wmo:42043:1,2007-01-05T16:30:00Z,28.9818,-94.9186,1011.55,11111222 
TABS,ioos:station:wmo:42043:1,2007-01-05T17:00:00Z,28.9818,-94.9186,1011.27,11111222 
TABS,ioos:station:wmo:42043:1,2007-01-05T17:30:00Z,28.9818,-94.9186,1010.71,11111222 
TABS,ioos:station:wmo:42043:1,2007-01-05T18:00:00Z,28.9818,-94.9186,1010.16,11111222 
TABS,ioos:station:wmo:42043:1,2007-01-05T18:30:00Z,28.9818,-94.9186,1009.43,11111222 
TABS,ioos:station:wmo:42043:1,2007-01-05T19:00:00Z,28.9818,-94.9186,1009.03,11111222 
TABS,ioos:station:wmo:42043:1,2007-01-05T19:30:00Z,28.9818,-94.9186,1008.45,11111222 
TABS,ioos:station:wmo:42043:1,2007-01-05T20:00:00Z,28.9818,-94.9186,1008.37,11111222 
TABS,ioos:station:wmo:42043:1,2007-01-05T20:30:00Z,28.9818,-94.9186,1008.47,11111222 
TABS,ioos:station:wmo:42043:1,2007-01-05T21:00:00Z,28.9818,-94.9186,1008.24,11111222 
TABS,ioos:station:wmo:42043:1,2007-01-05T21:30:00Z,28.9818,-94.9186,1008.57,11111222 
TABS,ioos:station:wmo:42043:1,2007-01-05T22:00:00Z,28.9818,-94.9186,1008.76,11111222 
TABS,ioos:station:wmo:42043:1,2007-01-05T22:30:00Z,28.9818,-94.9186,1008.69,11111222 
TABS,ioos:station:wmo:42043:1,2007-01-05T23:00:00Z,28.9818,-94.9186,1008.91,11111222 
TABS,ioos:station:wmo:42043:1,2007-01-05T23:30:00Z,28.9818,-94.9186,1009.27,11111222 
TABS,ioos:station:wmo:42043:1,2007-01-06T00:00:00Z,28.9818,-94.9186,1009.33,11111222 
TABS,ioos:station:wmo:42043:1,2007-01-06T00:30:00Z,28.9818,-94.9186,1009.75,11111222 
TABS,ioos:station:wmo:42043:1,2007-01-06T01:00:00Z,28.9818,-94.9186,1010.14,11111222 
TABS,ioos:station:wmo:42043:1,2007-01-06T01:30:00Z,28.9818,-94.9186,1010.18,11111222 
TABS,ioos:station:wmo:42043:1,2007-01-06T02:00:00Z,28.9818,-94.9186,1010.4,11111222 
TABS,ioos:station:wmo:42043:1,2007-01-06T02:30:00Z,28.9818,-94.9186,1010.34,11111222 
TABS,ioos:station:wmo:42043:1,2007-01-06T03:00:00Z,28.9818,-94.9186,1010.44,11111222 
TABS,ioos:station:wmo:42043:1,2007-01-06T03:30:00Z,28.9818,-94.9186,1010.73,11111222 
TABS,ioos:station:wmo:42043:1,2007-01-06T04:00:00Z,28.9818,-94.9186,1010.98,11111222 
TABS,ioos:station:wmo:42043:1,2007-01-06T04:30:00Z,28.9818,-94.9186,1011.07,11111222 
TABS,ioos:station:wmo:42043:1,2007-01-06T05:00:00Z,28.9818,-94.9186,1011.3,11111222 
TABS,ioos:station:wmo:42043:1,2007-01-06T05:30:00Z,28.9818,-94.9186,1011.18,11111222 
TABS,ioos:station:wmo:42043:1,2007-01-06T06:00:00Z,28.9818,-94.9186,1011.17,11111222 
TABS,ioos:station:wmo:42043:1,2007-01-06T06:30:00Z,28.9818,-94.9186,1011.26,11111222 
TABS,ioos:station:wmo:42043:1,2007-01-06T07:00:00Z,28.9818,-94.9186,1011.39,11111222 
TABS,ioos:station:wmo:42043:1,2007-01-06T07:30:00Z,28.9818,-94.9186,1011.55,11111222 
TABS,ioos:station:wmo:42043:1,2007-01-06T08:00:00Z,28.9818,-94.9186,1011.58,11111222 
TABS,ioos:station:wmo:42043:1,2007-01-06T08:30:00Z,28.9818,-94.9186,1011.91,11111222 
TABS,ioos:station:wmo:42043:1,2007-01-06T09:00:00Z,28.9818,-94.9186,1012.06,11111222 
TABS,ioos:station:wmo:42043:1,2007-01-06T09:30:00Z,28.9818,-94.9186,1012.13,11111222 
TABS,ioos:station:wmo:42043:1,2007-01-06T10:00:00Z,28.9818,-94.9186,1012.3,11111222 
TABS,ioos:station:wmo:42043:1,2007-01-06T10:30:00Z,28.9818,-94.9186,1012.34,11111222 
TABS,ioos:station:wmo:42043:1,2007-01-06T11:00:00Z,28.9818,-94.9186,1012.51,11111222 
TABS,ioos:station:wmo:42043:1,2007-01-06T11:30:00Z,28.9818,-94.9186,1012.84,11111222 
TABS,ioos:station:wmo:42043:1,2007-01-06T12:00:00Z,28.9818,-94.9186,1013.11,11111222 
TABS,ioos:station:wmo:42043:1,2007-01-06T12:30:00Z,28.9818,-94.9186,1013.57,11111222 
TABS,ioos:station:wmo:42043:1,2007-01-06T13:00:00Z,28.9818,-94.9186,1014.09,11111222 
TABS,ioos:station:wmo:42043:1,2007-01-06T13:30:00Z,28.9818,-94.9186,1014.43,11111222 
TABS,ioos:station:wmo:42043:1,2007-01-06T14:00:00Z,28.9818,-94.9186,1014.68,11111222 
TABS,ioos:station:wmo:42043:1,2007-01-06T14:30:00Z,28.9818,-94.9186,1015.14,11111222 
TABS,ioos:station:wmo:42043:1,2007-01-06T15:00:00Z,28.9818,-94.9186,1015.44,11111222 
TABS,ioos:station:wmo:42043:1,2007-01-06T15:30:00Z,28.9818,-94.9186,1016.14,11111222 
TABS,ioos:station:wmo:42043:1,2007-01-06T16:00:00Z,28.9818,-94.9186,1016.26,11111222 
TABS,ioos:station:wmo:42043:1,2007-01-06T16:30:00Z,28.9818,-94.9186,1016.34,11111222 
TABS,ioos:station:wmo:42043:1,2007-01-06T17:00:00Z,28.9818,-94.9186,1015.79,11111222 
TABS,ioos:station:wmo:42043:1,2007-01-06T17:30:00Z,28.9818,-94.9186,1015.26,11111222 
TABS,ioos:station:wmo:42043:1,2007-01-06T18:00:00Z,28.9818,-94.9186,1014.65,11111222 
TABS,ioos:station:wmo:42043:1,2007-01-06T18:30:00Z,28.9818,-94.9186,1014.4,11111222 